Date String (YYYY-MM-DD hh:mm:ss) UTC,Instrument flags,absolute air pressure of the measurement (hPa),sample flow rate (lpm),inlet stack bypass flow (lpm),air temperature of the measurement (°C),ambient temperature measured by the external sensor (°C),aerosol sample conditioner tube jacket temperature (°C),OPC LED temperature (°C),internal box temperature (°C),relative humidity of the measurement (%),span deviation,mass concentration of particles derived from Lorenz-Mie calculation of OPC scattering (μg/m³),mass concentration of particles derived from Lorenz-Mie calculation of OPC scattering (μg/m³),mass concentration of particles derived from Lorenz-Mie calculation of OPC scattering (μg/m³)
DateTimeUTC,F1_M11,P_M11,Q1_M11,Q2_M11,T1_M11,T2_M11,T3_M11,T4_M11,T5_M11,U1_M11,ZSPAN_M11,X0_M11,X2_M11,X1_M11
2024-01-21 06:00:00,SystemResetWarning,0822.3,5.00,000.00,019.3,018.6,000.0,027.8,020.6,16.2,0001.8,0031.29,0021.97,0020.79
2024-01-21 06:01:00,SystemResetWarning,0822.3,5.00,000.00,019.3,018.6,000.0,027.7,020.6,16.4,0001.6,0031.67,0021.92,0020.80
2024-01-21 06:02:00,SystemResetWarning,0822.4,5.00,000.00,019.3,018.6,000.0,027.7,020.6,16.6,0001.6,0032.20,0022.09,0020.95
2024-01-21 06:03:00,SystemResetWarning,0822.4,5.00,000.00,019.3,018.6,000.0,027.7,020.6,17.0,0001.6,0032.45,0022.26,0021.11
2024-01-21 06:04:00,SystemResetWarning,0822.4,5.01,000.00,019.3,018.5,000.0,027.7,020.5,17.3,0001.6,0032.40,0022.38,0021.25
2024-01-21 06:05:00,SystemResetWarning,0822.4,5.00,000.00,019.3,018.5,000.0,027.7,020.4,17.4,0001.6,0032.32,0022.52,0021.38
2024-01-21 06:06:00,SystemResetWarning,0822.3,5.00,000.00,019.3,018.5,000.0,027.7,020.4,17.6,0001.7,0032.63,0022.72,0021.56
2024-01-21 06:07:00,SystemResetWarning,0822.4,5.00,000.00,019.3,018.5,000.0,027.7,020.4,17.6,0001.8,0032.74,0022.88,0021.72
2024-01-21 06:08:00,SystemResetWarning,0822.4,5.00,000.00,019.3,018.5,000.0,027.7,020.4,17.8,0001.9,0032.63,0023.09,0021.92
2024-01-21 06:09:00,SystemResetWarning,0822.4,5.00,000.00,019.2,018.4,000.0,027.7,020.4,17.9,0002.4,0033.53,0023.54,0022.30
2024-01-21 06:10:00,SystemResetWarning,0822.3,4.99,000.00,019.2,018.4,000.0,027.7,020.4,18.0,0002.3,0035.29,0024.00,0022.71
2024-01-21 06:11:00,SystemResetWarning,0822.3,4.99,000.00,019.2,018.4,000.0,027.7,020.3,18.2,0002.2,0036.24,0024.43,0023.08
2024-01-21 06:12:00,SystemResetWarning,0822.2,4.99,000.00,019.2,018.4,000.0,027.7,020.3,18.4,0002.2,0036.50,0024.80,0023.38
2024-01-21 06:13:00,SystemResetWarning,0822.2,4.99,000.00,019.2,018.3,000.0,027.7,020.2,18.5,0002.4,0037.31,0025.04,0023.61
2024-01-21 06:14:00,SystemResetWarning,0822.2,5.01,000.00,019.2,018.3,000.0,027.7,020.3,18.5,0002.6,0038.20,0025.18,0023.72
2024-01-21 06:15:00,SystemResetWarning,0822.1,5.01,000.00,019.2,018.3,000.0,027.6,020.3,18.4,0002.5,0037.66,0025.28,0023.80
2024-01-21 06:16:00,SystemResetWarning,0822.1,5.00,000.00,019.1,018.3,000.0,027.6,020.3,18.4,0002.4,0038.03,0025.37,0023.88
2024-01-21 06:17:00,SystemResetWarning,0822.1,4.99,000.00,019.1,018.3,000.0,027.6,020.3,18.4,0002.4,0037.83,0025.46,0023.95
2024-01-21 06:18:00,SystemResetWarning,0822.1,4.99,000.00,019.1,018.3,000.0,027.6,020.3,18.4,0002.5,0038.16,0025.61,0024.06
2024-01-21 06:19:00,SystemResetWarning,0822.1,5.00,000.00,019.1,018.3,000.0,027.6,020.3,18.4,0002.7,0038.57,0025.74,0024.19
2024-01-21 06:20:00,SystemResetWarning,0822.1,5.01,000.00,019.1,018.3,000.0,027.6,020.4,18.3,0002.7,0038.79,0025.77,0024.20
2024-01-21 06:21:00,SystemResetWarning,0822.1,5.00,000.00,019.1,018.3,000.0,027.6,020.4,18.3,0002.7,0037.74,0025.77,0024.18
2024-01-21 06:22:00,SystemResetWarning,0822.1,4.99,000.00,019.1,018.3,000.0,027.6,020.4,18.3,0002.8,0036.44,0025.47,0023.91
2024-01-21 06:23:00,SystemResetWarning,0822.1,5.00,000.00,019.2,018.3,000.0,027.6,020.4,18.3,0002.8,0036.05,0025.22,0023.68
2024-01-21 06:24:00,SystemResetWarning,0822.1,4.99,000.00,019.2,018.3,000.0,027.5,020.4,18.3,0002.7,0034.36,0024.48,0023.02
2024-01-21 06:25:00,SystemResetWarning,0822.0,5.00,000.00,019.2,018.3,000.0,027.5,020.4,18.3,0002.5,0032.51,0023.77,0022.32
2024-01-21 06:26:00,SystemResetWarning,0822.0,5.00,000.00,019.2,018.3,000.0,027.5,020.4,18.3,0002.3,0031.69,0023.17,0021.70
2024-01-21 06:27:00,SystemResetWarning,0821.9,5.00,000.00,019.2,018.3,000.0,027.5,020.4,18.3,0002.3,0030.98,0022.53,0021.06
2024-01-21 06:28:00,SystemResetWarning,0822.0,5.01,000.00,019.2,018.3,000.0,027.5,020.4,18.3,0002.5,0030.37,0021.76,0020.32
2024-01-21 06:29:00,SystemResetWarning,0822.0,5.00,000.00,019.2,018.3,000.0,027.6,020.5,18.4,0002.4,0028.92,0020.81,0019.44
2024-01-21 06:30:00,SystemResetWarning,0822.0,5.00,000.00,019.2,018.3,000.0,027.6,020.4,18.2,0002.2,0027.45,0019.62,0018.27
2024-01-21 06:31:00,SystemResetWarning,0822.0,5.00,000.00,019.2,018.4,000.0,027.6,020.4,18.3,0001.8,0025.60,0018.28,0016.99
2024-01-21 06:32:00,SystemResetWarning,0822.0,4.99,000.00,019.2,018.4,000.0,027.6,020.5,18.0,0001.4,0023.48,0016.58,0015.41
2024-01-21 06:33:00,SystemResetWarning,0822.0,5.00,000.00,019.2,018.4,000.0,027.6,020.4,16.8,0001.7,0021.26,0014.79,0013.73
2024-01-21 06:34:00,SystemResetWarning,0822.1,5.00,000.00,019.2,018.4,000.0,027.6,020.4,17.2,0001.6,0019.21,0012.96,0012.00
2024-01-21 06:35:00,SystemResetWarning,0822.1,5.00,000.00,019.2,018.4,000.0,027.6,020.5,17.3,0001.9,0017.59,0011.62,0010.73
2024-01-21 06:36:00,SystemResetWarning,0822.1,5.00,000.00,019.2,018.4,000.0,027.6,020.5,16.7,0002.1,0015.89,0010.49,0009.71
2024-01-21 06:37:00,SystemResetWarning,0822.1,5.01,000.00,019.2,018.5,000.0,027.6,020.5,16.5,0002.5,0014.62,0009.41,0008.72
2024-01-21 06:38:00,SystemResetWarning,0822.1,5.01,000.00,019.2,018.5,000.0,027.6,020.4,16.5,0001.4,0012.83,0008.21,0007.60
2024-01-21 06:39:00,SystemResetWarning,0822.1,5.00,000.00,019.2,018.5,000.0,027.6,020.4,16.5,0000.0,0011.12,0007.16,0006.60
2024-01-21 06:40:00,SystemResetWarning,0822.0,5.00,000.00,019.2,018.5,000.0,027.6,020.5,16.8,0000.0,0009.95,0006.29,0005.81
2024-01-21 06:41:00,SystemResetWarning,0822.0,4.99,000.00,019.2,018.5,000.0,027.6,020.5,17.0,0000.0,0009.07,0005.60,0005.20
2024-01-21 06:42:00,SystemResetWarning,0822.0,4.99,000.00,019.2,018.5,000.0,027.5,020.5,17.1,0000.0,0008.43,0004.98,0004.67
2024-01-21 06:43:00,SystemResetWarning,0822.0,5.00,000.00,019.2,018.5,000.0,027.5,020.5,17.1,0000.0,0007.95,0004.54,0004.25
2024-01-21 06:44:00,SystemResetWarning,0821.9,5.01,000.00,019.2,018.5,000.0,027.6,020.5,17.2,0000.0,0007.71,0004.31,0004.04
2024-01-21 06:45:00,SystemResetWarning,0822.0,5.01,000.00,019.2,018.4,000.0,027.6,020.5,17.3,0000.0,0007.58,0004.25,0003.98
2024-01-21 06:46:00,SystemResetWarning,0822.0,4.99,000.00,019.2,018.4,000.0,027.6,020.5,17.5,0000.0,0007.44,0004.18,0003.93
2024-01-21 06:47:00,SystemResetWarning,0821.9,4.99,000.00,019.2,018.4,000.0,027.6,020.5,17.6,0000.0,0007.27,0004.05,0003.81
2024-01-21 06:48:00,SystemResetWarning,0821.8,5.00,000.00,019.2,018.4,000.0,027.6,020.5,17.8,0000.0,0006.80,0003.95,0003.75
2024-01-21 06:49:00,SystemResetWarning,0821.8,5.01,000.00,019.2,018.4,000.0,027.6,020.5,17.9,0000.0,0006.46,0003.88,0003.69
2024-01-21 06:50:00,SystemResetWarning,0821.8,5.00,000.00,019.2,018.4,000.0,027.6,020.4,18.0,0000.0,0006.31,0003.88,0003.71
2024-01-21 06:51:00,SystemResetWarning,0821.8,5.00,000.00,019.2,018.4,000.0,027.6,020.4,18.1,0000.0,0006.73,0004.08,0003.90
2024-01-21 06:52:00,SystemResetWarning,0821.8,5.01,000.00,019.2,018.4,000.0,027.6,020.4,18.2,0000.0,0007.36,0004.52,0004.31
2024-01-21 06:53:00,SystemResetWarning,0821.7,5.00,000.00,019.2,018.4,000.0,027.6,020.3,18.3,0000.0,0007.69,0004.84,0004.61
2024-01-21 06:54:00,SystemResetWarning,0821.8,5.00,000.00,019.1,018.4,000.0,027.6,020.3,18.2,0001.0,0009.24,0006.04,0005.77
2024-01-21 06:55:00,SystemResetWarning,0821.9,5.00,000.00,019.1,018.3,000.0,027.5,020.3,18.2,0002.3,0011.18,0007.65,0007.29
2024-01-21 06:56:00,SystemResetWarning,0821.8,5.00,000.00,019.1,018.3,000.0,027.5,020.3,18.1,0002.1,0012.57,0008.63,0008.22
2024-01-21 06:57:00,SystemResetWarning,0821.9,5.00,000.00,019.1,018.3,000.0,027.5,020.3,18.0,0002.1,0014.11,0009.90,0009.39
2024-01-21 06:58:00,SystemResetWarning,0822.0,5.00,000.00,019.1,018.3,000.0,027.5,020.3,17.1,0002.4,0016.54,0011.66,0011.08
2024-01-21 06:59:00,SystemResetWarning,0822.0,5.00,000.00,019.1,018.4,000.0,027.5,020.4,16.7,0002.2,0018.71,0013.50,0012.85
